Lexington Weather

Lexington, Massachusetts, USA

50°F
12/8/2022 2:07pm 
  • Lexington Conditions: Clear
  • Temperature: 49.5°F / 9.7°CColder 1.6°F than last hour.
  • Dew Point: 34.9°FDecreased 1.1°Fsince last hour.
  • Relative Humidity: 57%Increased 1.0% since last hour.
  • Wind: Wind from NNW NNW 5 mph, 10-min avg: 4 mph, gust: 11 mph
  • Barometer: 30.07 inRising 0.02  inHg/hr Rising Slowly
  • Visibility: 10 miles
  • Rain Today: 0.00 in
  •   

Warning: Undefined variable $rc in /homepages/6/d276339138/htdocs/weather/20190804/ssi/nwsProduct.php on line 323

Warning: Undefined variable $rc in /homepages/6/d276339138/htdocs/weather/20190804/ssi/nwsProduct.php on line 325

Warning: Undefined variable $rc in /homepages/6/d276339138/htdocs/weather/20190804/ssi/nwsProduct.php on line 323

Warning: Undefined variable $rc in /homepages/6/d276339138/htdocs/weather/20190804/ssi/nwsProduct.php on line 325

Warning: Undefined variable $rc in /homepages/6/d276339138/htdocs/weather/20190804/ssi/nwsProduct.php on line 323

Warning: Undefined variable $rc in /homepages/6/d276339138/htdocs/weather/20190804/ssi/nwsProduct.php on line 325

Warning: Undefined variable $rc in /homepages/6/d276339138/htdocs/weather/20190804/ssi/nwsProduct.php on line 323

Warning: Undefined variable $rc in /homepages/6/d276339138/htdocs/weather/20190804/ssi/nwsProduct.php on line 325

Warning: Undefined variable $rc in /homepages/6/d276339138/htdocs/weather/20190804/ssi/nwsProduct.php on line 323

Warning: Undefined variable $rc in /homepages/6/d276339138/htdocs/weather/20190804/ssi/nwsProduct.php on line 325

Warning: Undefined variable $rc in /homepages/6/d276339138/htdocs/weather/20190804/ssi/nwsProduct.php on line 323

Warning: Undefined variable $rc in /homepages/6/d276339138/htdocs/weather/20190804/ssi/nwsProduct.php on line 325

Warning: Undefined variable $rc in /homepages/6/d276339138/htdocs/weather/20190804/ssi/nwsProduct.php on line 323

Warning: Undefined variable $rc in /homepages/6/d276339138/htdocs/weather/20190804/ssi/nwsProduct.php on line 325

Regional Weather Roundup
for Boston, MA

        
000
ASUS41 KBOX 060810
RWRBOX

REGIONAL WEATHER ROUNDUP
NATIONAL WEATHER SERVICE BOSTON/NORTON MA
300 AM EST TUE DEC 06 2022

NOTE:  "FAIR" INDICATES FEW OR NO CLOUDS BELOW 12,000 FEET WITH NO 
SIGNIFICANT WEATHER AND/OR OBSTRUCTIONS TO VISIBILITY.

MAZALL-060900-
EASTERN MASSACHUSETTS
  
CITY           SKY/WX    TMP DP  RH WIND       PRES   REMARKS
BOSTON         MOCLDY    42  38  85 SE5       30.42R                  
BEVERLY        NOT AVBL                                               
LAWRENCE       MOCLDY    41  37  86 CALM      30.43R                  
BEDFORD        CLOUDY    33  29  85 CALM      30.40R                  
NORWOOD        CLOUDY    34  31  88 CALM      30.40R                  
MARSHFIELD       N/A     45  41  87 S7        30.40S                  
PLYMOUTH       CLOUDY    42  38  85 SE6       30.39S                  
TAUNTON          N/A    N/A N/A N/A MISG      30.39R                  
NEW BEDFORD    CLOUDY    46  42  86 SE7       30.38S                  
$$

MAZALL-060900-
CAPE COD AND THE ISLANDS
  
CITY           SKY/WX    TMP DP  RH WIND       PRES   REMARKS
FALMOUTH       CLEAR     43  41  93 SE10      30.40S                  
HYANNIS        MOCLDY    45  41  86 SE6       30.39F                  
CHATHAM        MOCLDY    46  40  79 S5        30.43S                  
PROVINCETOWN   MOCLDY    44  40  85 SE7       30.42S                  
NANTUCKET      MOCLDY    42  40  92 E3        30.42R                  
MARTHAS VNYRD  CLOUDY    46  42  86 SE8       30.39S                  
$$
 
MAZALL-060900-
CENTRAL AND WESTERN MASSACHUSETTS
  
CITY           SKY/WX    TMP DP  RH WIND       PRES   REMARKS
WORCESTER      CLOUDY    41  35  79 E3        30.36R                  
FITCHBURG      CLOUDY    34  29  82 CALM      30.40R                  
ORANGE         MOCLDY    31  27  85 CALM      30.36F                  
SPRINGFIELD    MOCLDY    29  28  96 CALM      30.34F                  
WESTFIELD      MOCLDY    28  25  88 CALM      30.35F                  
NORTH ADAMS    PTCLDY    42  34  73 E10G16    30.32R                  
PITTSFIELD     PTCLDY    37  33  85 SE7       30.30R WCI  32          
$$
 
RIZALL-060900-
RHODE ISLAND
  
CITY           SKY/WX    TMP DP  RH WIND       PRES   REMARKS
PROVIDENCE     MOCLDY    35  33  92 CALM      30.39R                  
NEWPORT        MOCLDY    47  43  86 SE8       30.37R                  
BLOCK ISLAND   MOCLDY    50  45  83 SE14      30.37R                  
SMITHFIELD     MOCLDY    39  38  96 SE6       30.38R                  
WESTERLY       MOCLDY    50  46  86 SE8       30.36S                  
$$
 
CTZALL-060900-
CONNECTICUT
  
CITY           SKY/WX    TMP DP  RH WIND       PRES   REMARKS
BRADLEY INTL   MOCLDY    31  28  89 NW3       30.36F                  
HARTFORD       MOCLDY    35  31  85 CALM      30.37S                  
BRIDGEPORT     MOCLDY    36  33  89 N9        30.34S WCI  29          
DANBURY        MOCLDY    28  23  81 CALM      30.35R                  
GROTON         MOCLDY    41  36  82 N5        30.35R                  
NEW HAVEN      MOCLDY    37  34  89 N7        30.34S WCI  32          
CHESTER        FAIR      39  39 100 N3        30.34S                  
MERIDEN        MOCLDY    32  28  85 CALM      30.36R                  
WILLIMANTIC    MOCLDY    30  29  96 CALM      30.37S                  
OXFORD         MOCLDY    33  30  88 E6        30.33S WCI  28          
$$

MEZ002-015-021-024-NHZ003-005-008-011-012-014-VTZ005-008-060900-
NORTHERN NEW ENGLAND
  
CITY           SKY/WX    TMP DP  RH WIND       PRES   REMARKS
PORTLAND ME    CLOUDY    34  33  96 NW5       30.44R WCI  30          
BANGOR ME      MOCLDY    33  32  96 CALM      30.45R                  
CONCORD NH     CLOUDY    32  29  88 CALM      30.40S                  
MANCHESTER NH  CLOUDY    35  30  82 CALM      30.39R                  
NASHUA NH      CLOUDY    33  33 100 CALM      30.42R                  
PORTSMOUTH NH  CLOUDY    32  30  92 NW3       30.42R                  
JAFFREY NH     CLOUDY    33  29  85 CALM      30.35S                  
KEENE NH       CLOUDY    31  29  92 CALM        N/A                   
BURLINGTON VT  CLOUDY    42  16  34 S12G18    30.26R                  
MT. WASHINGTON MOCLDY    19  10  68 SW37G45     N/A  WCI  -1          
$$

NYZ052-076-060900-
EASTERN NEW YORK
  
CITY           SKY/WX    TMP DP  RH WIND       PRES   REMARKS
ALBANY         CLOUDY    40  32  73 SE9       30.30R                  
NEW YORK CITY  MOCLDY    41  36  82 NE6       30.32R                  
$$
 
ANZALL-060900-
MARINE OBSERVATIONS
  
STATION/POSITION TIME  TEMP    WIND        PRES    VSBY  WAVE
                       AIR SEA DIR/SP/G                  HT/PER
                 (UTC) (F)     (DEG/KT/KT) (MB)    (MI)  (FT/S)
BOSTON BUOY      0750      51  140/ 16/ 19 1030.4R         3/ 4
BUZZARDS BAY     0700   49     120/ 19/ 21 1028.8R
NANTUCKET SOUND  0750   49     110/ 12/ 14 1029.6F         1/ 3
MASS BAY-STELLWA 0604   48 50  150/ 14/ 16 1028.6R  1 7/8  3/ 4
ISLE OF SHOALS   0700   47     150/ 17/ 20 1028.8R
S OF BLOCK IS    0726      54                N/A           4/11
$$

......................KEY.........................
  SKY/WX - SKY CONDITION/PRESENT WEATHER
  TMP    - TEMPERATURE IN FAHRENHEIT
  DWPT   - DEWPOINT IN FAHRENHEIT
  RH     - RELATIVE HUMIDITY IN PERCENT
  WIND   - DIRECTION AND SPEED IN MPH
  PRES   - MEAN SEA LEVEL PRESSURE IN INCHES OF HG
  WCI    - WIND CHILL INDEX
  VSB    - VISIBILITY IN MILES
  HX     - HEAT INDEX
  TC     - TEMPERATURE IN CELSIUS
  VRB    - VARIABLE WIND DIRECTION
  N/A    - NOT AVAILABLE
  
      

Other recent Regional Weather Roundups

Thu Dec 8, 1:10pm

Thu Dec 8, 12:10pm

Thu Dec 8, 11:10am

Thu Dec 8, 10:10am

Thu Dec 8, 9:10am

Thu Dec 8, 8:10am

Thu Dec 8, 7:10am

Thu Dec 8, 6:10am

Thu Dec 8, 5:10am

Thu Dec 8, 4:10am

Thu Dec 8, 3:10am

Thu Dec 8, 2:10am

Thu Dec 8, 1:10am

Thu Dec 8, 12:10am

Wed Dec 7, 11:10pm

Wed Dec 7, 10:10pm

Wed Dec 7, 9:10pm

Wed Dec 7, 8:10pm

Wed Dec 7, 7:10pm

Wed Dec 7, 6:10pm

Wed Dec 7, 5:10pm

Wed Dec 7, 4:10pm

Wed Dec 7, 3:10pm

Wed Dec 7, 2:10pm

Wed Dec 7, 1:10pm

Wed Dec 7, 12:10pm

Wed Dec 7, 11:10am

Wed Dec 7, 10:10am

Wed Dec 7, 9:10am

Wed Dec 7, 8:10am

Wed Dec 7, 7:10am

Wed Dec 7, 6:10am

Wed Dec 7, 5:10am

Wed Dec 7, 4:10am

Wed Dec 7, 3:10am

Wed Dec 7, 2:10am

Wed Dec 7, 1:10am

Wed Dec 7, 12:10am

Tue Dec 6, 11:10pm

Tue Dec 6, 10:10pm

Tue Dec 6, 9:10pm

Tue Dec 6, 8:10pm

Tue Dec 6, 7:10pm

Tue Dec 6, 6:10pm

Tue Dec 6, 5:10pm

Tue Dec 6, 4:10pm

Tue Dec 6, 3:10pm

Tue Dec 6, 2:10pm

Tue Dec 6, 1:10pm

Tue Dec 6, 12:10pm

Tue Dec 6, 11:10am

Tue Dec 6, 10:10am

Tue Dec 6, 9:10am

Tue Dec 6, 8:10am

Tue Dec 6, 7:10am

Tue Dec 6, 6:10am

Tue Dec 6, 5:10am

Tue Dec 6, 4:10am

Tue Dec 6, 2:10am

Tue Dec 6, 1:10am

Tue Dec 6, 12:10am

Mon Dec 5, 11:10pm

Mon Dec 5, 10:10pm

Mon Dec 5, 9:10pm

Mon Dec 5, 8:10pm

Mon Dec 5, 7:10pm

Mon Dec 5, 6:10pm

Mon Dec 5, 5:10pm

Mon Dec 5, 4:10pm

Mon Dec 5, 3:10pm

Mon Dec 5, 2:10pm

Mon Dec 5, 1:10pm

Mon Dec 5, 12:10pm

Mon Dec 5, 11:10am

Mon Dec 5, 10:10am

Mon Dec 5, 9:10am

Mon Dec 5, 8:10am

Mon Dec 5, 7:10am

Mon Dec 5, 6:10am

Mon Dec 5, 5:10am

Mon Dec 5, 4:10am

Mon Dec 5, 3:10am

Mon Dec 5, 2:10am

Mon Dec 5, 1:10am

Mon Dec 5, 12:10am

Sun Dec 4, 11:10pm

Sun Dec 4, 10:10pm

Sun Dec 4, 9:10pm

Sun Dec 4, 8:10pm

Sun Dec 4, 7:10pm

Sun Dec 4, 6:10pm

Sun Dec 4, 5:10pm

Sun Dec 4, 4:10pm

Sun Dec 4, 3:10pm

Sun Dec 4, 2:10pm

Sun Dec 4, 1:10pm

Sun Dec 4, 12:10pm

Sun Dec 4, 11:10am

Sun Dec 4, 10:10am

Sun Dec 4, 9:10am

Sun Dec 4, 8:10am

Sun Dec 4, 7:10am

Sun Dec 4, 6:10am

Sun Dec 4, 5:10am

Sun Dec 4, 4:10am

Sun Dec 4, 3:10am

Sun Dec 4, 2:10am

Sun Dec 4, 1:10am

Sun Dec 4, 12:10am

Sat Dec 3, 11:10pm

Sat Dec 3, 10:10pm

Sat Dec 3, 9:10pm

Sat Dec 3, 8:10pm

Sat Dec 3, 7:10pm

Sat Dec 3, 6:10pm

Sat Dec 3, 5:10pm

Sat Dec 3, 4:10pm

Sat Dec 3, 3:10pm

Sat Dec 3, 2:10pm

Sat Dec 3, 1:10pm

Sat Dec 3, 12:10pm

Sat Dec 3, 11:10am

Sat Dec 3, 10:10am

Sat Dec 3, 9:10am

Sat Dec 3, 8:10am

Sat Dec 3, 7:10am

Sat Dec 3, 6:10am

Sat Dec 3, 5:10am

Sat Dec 3, 4:10am

Sat Dec 3, 3:10am

Sat Dec 3, 2:10am

Sat Dec 3, 1:10am

Sat Dec 3, 12:10am

Fri Dec 2, 11:10pm

Fri Dec 2, 10:10pm

Fri Dec 2, 9:10pm

Fri Dec 2, 8:10pm

Fri Dec 2, 7:10pm

Fri Dec 2, 6:10pm

Fri Dec 2, 5:10pm

Fri Dec 2, 4:10pm

Fri Dec 2, 3:10pm

Fri Dec 2, 2:10pm

Fri Dec 2, 1:10pm

Fri Dec 2, 12:10pm

Fri Dec 2, 11:10am

Fri Dec 2, 10:10am

Fri Dec 2, 9:10am

Fri Dec 2, 8:10am

Fri Dec 2, 7:10am

Fri Dec 2, 6:10am

Fri Dec 2, 5:10am

Fri Dec 2, 4:10am

Fri Dec 2, 3:10am

Fri Dec 2, 2:10am

Fri Dec 2, 1:10am

Fri Dec 2, 12:10am

Thu Dec 1, 11:10pm

Thu Dec 1, 10:10pm

Thu Dec 1, 9:10pm

Thu Dec 1, 8:10pm

Thu Dec 1, 7:10pm

Thu Dec 1, 6:10pm

Thu Dec 1, 5:10pm

Thu Dec 1, 4:10pm

Thu Dec 1, 3:10pm

Thu Dec 1, 2:10pm

Meta data:

ID: c98f2903-b7bb-43de-ba55-55dcd97853a7
Link: https://api.weather.gov/products/c98f2903-b7bb-43de-ba55-55dcd97853a7